Location: Unspecified
(0.0000°N, 0.0000°E)
Time: 06:53:37
(UTC+00:00)

Mublcom - Pass Details

Date: 25 May 2026
Orbit: 700 x 704 km, 97.7° (Epoch: 10 June)

Event Time Altitude Azimuth Distance (km) Brightness Sun altitude
Rises 20:13:24 0° 9° (N) 3,077 10.3 -31.5°
Reaches altitude 10° 20:15:39 10° 8° (N) 2,161 9.5 -32.1°
Enters shadow 20:15:48 11° 8° (N) 2,098 9.4 -32.1°
